Wind_Speed
9 9 9 8 9 9 7 5 5 6 7 8 10 11 13 15 17 20 22 23 24 26 29 31 34 36 37 39 40 41 43 46 52 55 61 70 75 76 77 77 80 80 80 79 71
12 12 11 10 9 8 8 4 2 4 7 9 10 14 16 19 22 25 27 28 31 31 33 35 38 41 43 44 46 47 48 48 49 55 61 66 71 79 81 80 82 84 83 82 79
13 12 10 10 10 8 6 6 6 8 13 15 18 19 22 25 26 30 31 32 31 31 33 34 37 42 45 48 49 51 54 53 55 58 60 62 66 71 77 83 86 86 87 89 90
16 14 12 12 9 9 10 11 13 16 18 19 20 24 27 29 32 36 36 34 34 32 31 33 33 33 36 40 46 52 55 58 61 64 66 66 67 69 72 77 85 88 89 92 92
18 19 17 16 15 15 16 17 20 20 23 25 27 29 30 33 36 40 40 38 37 37 36 36 36 38 38 38 37 40 42 46 52 61 68 73 76 77 77 78 80 84 90 94 97
17 20 23 23 22 21 23 24 25 28 30 31 33 35 36 38 38 42 43 43 42 41 40 38 37 37 36 38 39 40 42 43 45 52 58 62 71 77 84 83 81 84 88 93 98
24 24 23 24 26 26 27 29 29 31 34 36 37 39 41 41 42 44 44 44 45 45 42 40 41 41 41 44 47 48 51 50 50 52 55 58 63 64 81 87 86 89 88 91 95
31 31 30 30 27 28 30 30 31 32 32 34 38 41 42 40 43 46 47 47 47 46 44 41 40 42 45 49 50 50 54 55 52 57 57 58 68 64 69 80 85 91 92 92 93
33 33 33 33 33 33 34 36 35 36 39 40 42 41 42 43 45 48 48 48 47 46 45 44 45 45 47 51 54 54 54 56 55 54 57 59 61 63 63 75 82 90 95 96 97
36 36 34 33 33 35 37 35 36 39 40 39 40 41 42 45 48 48 50 50 49 49 48 48 48 49 50 51 53 55 56 53 52 51 56 54 56 62 60 65 77 83 91 95 98
37 38 37 37 39 39 40 41 44 49 44 43 42 43 44 48 50 51 51 51 53 52 50 50 51 52 53 56 56 57 56 52 49 47 49 51 53 58 57 59 69 84 92 94 98
44 45 48 48 47 47 48 47 44 44 42 43 43 44 46 49 51 53 52 54 54 53 53 53 52 53 54 57 58 57 58 53 48 46 41 42 49 53 51 53 64 75 88 95 99
53 52 51 50 49 46 45 43 45 43 44 44 44 45 48 52 54 54 55 54 54 55 54 53 54 52 54 57 57 56 59 54 47 47 40 37 43 48 46 50 57 70 82 92 101
53 50 48 44 43 42 43 44 45 44 44 46 48 50 52 52 52 55 54 55 56 55 55 54 55 55 55 56 60 61 61 53 51 45 38 37 36 40 46 47 50 60 71 82 97
47 44 45 45 44 44 46 47 46 49 48 49 50 52 50 54 54 53 52 54 56 57 57 57 58 58 58 58 60 66 62 53 51 44 34 34 34 36 37 41 49 52 58 67 79
46 47 46 47 48 48 50 50 52 52 51 51 54 55 56 54 54 53 54 54 56 55 56 59 60 59 58 62 62 65 57 55 50 42 34 31 33 28 29 34 36 47 53 56 61
49 50 51 52 52 53 54 55 55 54 55 57 57 57 56 57 54 54 54 55 56 58 59 60 61 63 63 66 65 59 52 46 46 36 35 33 27 25 28 31 31 35 40 47 49
51 51 50 51 50 50 50 51 51 51 54 55 55 56 55 56 57 57 58 57 59 62 63 65 61 62 66 67 64 54 46 39 37 34 34 36 24 25 31 32 31 30 32 40 42
45 45 46 47 48 50 52 54 54 54 55 57 58 58 60 57 58 62 63 62 64 64 66 66 63 64 65 65 56 47 44 37 32 29 29 30 20 24 31 34 34 29 28 31 23
49 46 46 47 49 52 54 55 58 59 59 59 60 61 62 64 64 64 64 66 66 66 66 68 68 62 63 58 50 45 37 34 28 27 28 26 21 27 35 36 39 31 26 21 13
52 50 50 53 54 56 57 59 60 62 65 65 67 68 68 68 68 68 70 69 70 69 68 68 67 66 61 50 45 37 32 30 25 22 21 18 22 27 33 34 34 34 23 16 7
54 54 54 57 58 59 60 59 62 65 68 68 70 70 71 68 71 71 70 71 71 70 68 67 66 62 53 44 42 35 32 24 21 20 13 13 23 28 38 38 42 37 20 15 3
59 61 60 60 61 62 62 63 67 67 70 72 70 71 71 71 70 69 70 70 69 66 63 61 59 54 44 41 37 30 29 24 20 18 11 14 22 29 35 38 38 37 25 14 8
63 63 62 59 61 61 62 66 66 66 68 69 68 67 69 66 62 59 56 56 56 54 53 50 46 44 37 37 31 25 21 21 19 16 11 15 23 30 37 34 39 36 29 23 7
67 63 61 64 65 65 66 69 67 62 54 53 55 54 52 54 52 51 47 46 43 42 41 38 37 35 32 31 26 23 18 20 17 14 10 14 23 27 33 36 33 30 24 23 13
65 63 66 65 65 65 63 59 54 45 45 49 45 43 45 47 45 42 39 37 34 34 33 31 28 29 28 25 23 23 20 18 17 12 9 9 17 27 31 32 28 25 22 22 16
64 64 65 64 63 60 51 49 45 46 46 49 43 43 44 42 39 38 34 30 28 28 27 24 24 26 24 22 22 23 20 20 17 14 9 7 15 23 28 28 30 21 21 24 18
Wind_Direction
336 330 325 319 321 325 332 340 350 351 351 352 353 350 347 340 327 316 305 296 290 283 275 269 265 262 260 259 256 253 250 247 245 244 243 242 241 240 236 237 236 237 237 235 226
323 322 319 317 315 311 308 306 352 9 2 357 348 341 339 335 331 325 314 308 302 293 282 274 269 264 261 259 257 256 254 249 247 246 244 243 242 241 240 237 237 237 237 234 227
323 322 318 313 306 300 290 280 296 304 322 327 325 326 328 331 324 321 317 308 307 302 294 284 276 269 264 262 261 259 257 253 250 249 247 247 247 245 244 240 238 237 236 234 234
326 321 311 311 295 286 283 276 288 299 306 312 313 316 318 319 320 319 317 314 313 310 301 290 284 283 278 272 266 264 263 260 256 253 250 248 247 245 245 244 240 237 237 234 234
315 318 315 304 299 292 287 283 287 293 298 300 305 308 313 315 316 314 315 312 312 313 309 301 293 286 282 281 278 276 274 269 265 260 256 253 249 246 245 243 243 240 238 237 234
320 313 311 309 304 299 297 294 287 293 296 297 299 304 307 305 308 309 310 310 310 311 309 300 292 290 291 293 293 293 290 281 275 271 264 258 254 251 251 245 241 241 239 238 237
307 310 313 310 301 300 298 299 297 295 293 292 293 295 299 300 302 306 307 308 309 311 308 298 292 293 296 297 298 298 296 292 289 280 274 264 258 254 252 248 244 242 240 238 236
305 307 307 306 305 303 302 298 291 292 296 297 297 296 295 296 300 303 305 306 308 310 308 301 300 298 298 297 298 298 299 294 289 280 278 272 263 256 254 248 244 242 241 240 238
296 298 298 298 296 294 296 295 292 292 293 293 295 292 292 293 299 302 303 305 307 308 304 301 298 297 297 297 299 299 297 296 286 288 282 275 265 264 252 247 244 241 240 240 238
295 295 294 294 290 291 294 292 292 294 296 294 294 293 290 292 296 299 301 303 307 307 306 303 301 299 300 300 302 303 302 300 286 291 285 272 267 266 259 248 244 241 239 239 238
294 295 296 294 294 294 294 293 296 299 298 297 291 290 286 290 295 300 303 303 306 306 303 302 300 301 300 301 301 306 305 304 293 292 285 275 271 267 265 256 244 237 237 235 234
291 293 295 295 293 291 293 293 293 295 294 294 291 289 288 291 298 301 302 304 305 304 304 305 305 303 303 304 305 309 307 307 299 297 282 277 274 273 268 257 249 244 236 235 231
294 294 293 294 295 295 296 297 296 298 296 295 294 291 291 296 299 301 303 304 304 303 304 304 305 306 308 309 308 312 312 312 305 303 287 281 286 285 273 259 249 242 242 234 231
295 296 295 295 295 295 297 298 296 294 293 294 295 295 295 297 299 301 302 302 301 302 302 304 306 308 311 311 313 314 314 313 310 303 295 292 300 285 276 270 262 254 249 243 234
295 295 295 294 295 296 297 298 297 295 295 293 293 295 296 298 299 300 300 299 298 299 302 305 307 310 314 316 314 316 313 312 309 305 304 298 302 275 282 278 268 263 257 251 245
293 294 293 293 293 293 294 294 295 294 290 290 294 294 295 294 296 295 297 298 300 301 304 307 312 313 315 319 316 315 312 313 307 307 304 306 303 301 298 291 282 277 268 260 252
291 291 292 293 292 293 293 295 295 293 293 294 296 297 296 296 297 298 298 300 301 303 306 308 313 313 315 318 317 313 312 308 305 309 306 307 308 313 323 313 297 296 289 275 261
294 293 293 293 293 293 294 295 296 296 296 297 298 298 298 299 300 301 302 302 303 305 307 309 311 312 315 317 316 315 313 307 306 311 306 314 310 308 326 323 310 311 302 278 274
291 293 293 295 296 297 297 298 300 300 300 301 301 300 299 300 300 302 303 304 305 306 308 310 311 315 316 318 317 318 312 311 314 306 304 313 319 327 328 331 320 314 314 287 278
293 295 296 297 297 298 299 299 299 299 300 300 301 301 303 305 304 304 303 304 305 307 308 308 310 317 318 318 320 318 314 313 314 307 314 311 315 328 330 339 328 327 319 309 265
293 294 296 299 301 301 302 302 299 298 299 299 301 302 303 302 302 303 302 302 303 304 305 306 310 315 318 320 321 318 311 318 309 311 317 321 329 334 346 343 338 335 340 311 305
293 295 298 301 302 301 300 298 296 295 297 297 298 297 296 296 296 297 297 299 300 301 302 306 310 315 317 320 321 318 314 317 313 317 311 320 322 338 345 343 345 341 347 337 300
295 298 300 302 301 300 299 296 294 295 295 296 295 295 295 294 293 296 295 295 297 299 301 305 310 311 317 321 322 317 317 320 323 328 323 327 326 345 346 347 342 349 351 5 333
296 298 301 300 300 299 298 296 295 296 296 297 296 295 294 297 298 299 298 297 298 300 302 306 308 311 317 325 326 322 316 330 333 337 312 317 329 346 343 352 348 356 357 9 7
297 299 298 297 298 297 295 298 299 299 301 303 298 298 303 306 304 302 301 300 300 303 304 306 307 308 320 327 328 321 334 344 345 338 324 330 334 338 344 349 355 356 5 19 41
295 296 296 297 301 299 296 300 300 298 303 313 305 306 310 312 308 309 309 308 307 303 303 303 305 310 323 331 331 325 326 339 343 335 323 321 329 331 352 354 4 358 15 34 52
294 294 298 303 301 301 299 302 300 302 306 311 303 308 308 316 313 312 317 314 308 301 303 302 306 310 322 332 329 328 328 327 337 321 323 313 320 334 345 4 5 3 20 38 62
Height
10868 10867 10865 10864 10862 10861 10859 10858 10857 10856 10854 10853 10852 10851 10850 10849 10848 10846 10845 10844 10843 10842 10840 10839 10838 10838 10837 10837 10837 10837 10838 10839 10840 10841 10841 10840 10843 10847 10854 10858 10863 10866 10872 10874 10890
10867 10865 10864 10862 10861 10859 10858 10856 10855 10854 10853 10852 10850 10849 10847 10845 10843 10841 10839 10837 10835 10833 10831 10829 10828 10827 10826 10826 10825 10825 10826 10828 10830 10828 10826 10826 10826 10828 10835 10842 10846 10850 10854 10861 10869
10866 10864 10862 10860 10859 10857 10856 10854 10853 10852 10850 10848 10847 10845 10843 10841 10838 10836 10833 10830 10827 10824 10821 10819 10817 10816 10814 10814 10814 10814 10813 10815 10815 10812 10812 10812 10815 10816 10819 10826 10830 10835 10840 10845 10852
10863 10862 10860 10858 10856 10855 10853 10851 10850 10848 10847 10845 10843 10841 10839 10836 10833 10828 10825 10821 10818 10815 10812 10809 10807 10805 10803 10802 10802 10802 10802 10801 10800 10798 10796 10798 10798 10800 10802 10805 10810 10819 10822 10828 10836
10861 10859 10858 10856 10854 10852 10850 10848 10846 10844 10842 10840 10837 10835 10832 10829 10826 10822 10818 10813 10810 10806 10802 10799 10796 10794 10792 10790 10790 10788 10788 10786 10784 10780 10778 10779 10777 10779 10782 10783 10792 10799 10803 10809 10816
10858 10857 10855 10853 10851 10849 10847 10844 10842 10839 10837 10834 10831 10828 10825 10822 10819 10815 10809 10805 10801 10798 10794 10790 10786 10784 10781 10778 10777 10775 10773 10770 10767 10762 10759 10760 10759 10767 10757 10764 10773 10773 10780 10788 10794
10854 10853 10851 10848 10846 10844 10842 10840 10837 10834 10831 10828 10825 10821 10818 10815 10810 10807 10802 10798 10792 10788 10783 10779 10776 10772 10770 10767 10763 10760 10756 10753 10751 10745 10740 10739 10733 10743 10733 10742 10752 10753 10758 10764 10769
10850 10848 10846 10844 10841 10837 10835 10833 10830 10828 10825 10822 10818 10813 10810 10807 10802 10798 10792 10788 10783 10779 10773 10769 10766 10761 10757 10754 10750 10747 10740 10735 10731 10727 10718 10716 10707 10713 10717 10715 10724 10729 10735 10744 10750
10844 10842 10839 10837 10834 10831 10828 10825 10822 10819 10817 10813 10810 10805 10802 10797 10793 10788 10782 10778 10774 10768 10763 10758 10753 10750 10746 10741 10736 10733 10727 10717 10712 10705 10697 10690 10686 10687 10692 10690 10697 10702 10707 10715 10724
10836 10834 10832 10829 10826 10823 10819 10816 10812 10809 10806 10803 10800 10795 10790 10787 10782 10778 10772 10767 10762 10756 10751 10746 10742 10737 10733 10728 10722 10714 10706 10701 10693 10686 10675 10669 10670 10658 10664 10671 10675 10681 10684 10690 10700
10828 10825 10823 10821 10818 10815 10812 10808 10804 10798 10795 10793 10789 10784 10780 10775 10770 10765 10759 10754 10750 10744 10739 10736 10730 10725 10719 10712 10706 10700 10692 10684 10675 10670 10659 10652 10644 10639 10644 10650 10648 10649 10652 10660 10668
10819 10817 10813 10810 10807 10804 10801 10798 10795 10791 10787 10781 10778 10774 10770 10765 10760 10753 10748 10742 10736 10731 10726 10722 10717 10712 10706 10698 10689 10682 10673 10668 10659 10653 10646 10638 10626 10621 10623 10622 10621 10623 10625 10631 10639
10809 10806 10803 10800 10796 10793 10790 10786 10783 10780 10775 10772 10768 10763 10758 10753 10747 10741 10735 10729 10723 10717 10712 10708 10703 10699 10691 10683 10673 10665 10656 10648 10640 10633 10625 10624 10608 10601 10600 10596 10597 10598 10598 10604 10609
10799 10796 10792 10789 10786 10783 10779 10776 10773 10770 10767 10762 10756 10752 10747 10743 10737 10729 10724 10717 10710 10705 10700 10695 10688 10683 10677 10667 10655 10647 10637 10631 10624 10616 10611 10603 10595 10587 10580 10578 10577 10575 10574 10579 10580
10788 10787 10783 10779 10776 10773 10769 10765 10762 10758 10756 10752 10747 10742 10739 10729 10724 10722 10714 10707 10699 10693 10687 10681 10675 10668 10660 10652 10641 10629 10619 10614 10607 10599 10597 10587 10584 10576 10567 10562 10557 10554 10554 10556 10560
10778 10776 10774 10770 10767 10763 10759 10755 10751 10748 10743 10738 10733 10730 10724 10721 10714 10708 10702 10695 10687 10681 10675 10667 10660 10653 10645 10637 10627 10616 10606 10595 10589 10585 10581 10578 10570 10562 10558 10550 10542 10534 10534 10537 10540
10768 10765 10762 10758 10756 10752 10748 10744 10739 10736 10730 10727 10722 10717 10711 10705 10701 10695 10689 10684 10675 10667 10662 10655 10650 10637 10630 10621 10612 10601 10595 10586 10574 10574 10568 10565 10558 10554 10545 10537 10531 10525 10519 10517 10517
10759 10754 10750 10747 10744 10740 10737 10733 10728 10725 10719 10715 10710 10705 10700 10694 10688 10680 10674 10668 10662 10653 10646 10639 10637 10627 10615 10606 10594 10585 10581 10573 10566 10563 10557 10552 10550 10544 10536 10530 10522 10517 10512 10499 10506
10748 10746 10741 10738 10735 10731 10727 10723 10719 10714 10708 10702 10696 10691 10684 10682 10677 10666 10658 10653 10645 10638 10629 10622 10619 10613 10602 10591 10580 10574 10564 10560 10557 10553 10548 10545 10542 10537 10531 10522 10513 10507 10499 10496 10499
10734 10734 10731 10728 10724 10719 10715 10711 10704 10698 10693 10688 10683 10677 10669 10664 10657 10651 10645 10636 10631 10624 10616 10606 10598 10600 10589 10578 10569 10561 10555 10550 10549 10544 10540 10535 10535 10529 10524 10514 10505 10498 10490 10486 10486
10723 10721 10718 10714 10711 10707 10702 10697 10692 10685 10679 10673 10667 10661 10655 10648 10641 10633 10626 10620 10615 10609 10604 10596 10588 10583 10576 10569 10562 10556 10549 10544 10540 10538 10535 10531 10528 10524 10516 10509 10500 10489 10487 10473 10472
10710 10709 10706 10702 10698 10692 10688 10682 10675 10670 10662 10656 10651 10646 10639 10635 10625 10619 10612 10605 10599 10594 10589 10582 10577 10571 10566 10560 10552 10545 10541 10538 10533 10531 10529 10528 10522 10517 10509 10500 10491 10482 10480 10467 10465
10697 10695 10692 10689 10684 10679 10672 10667 10659 10654 10646 10640 10634 10628 10621 10618 10612 10604 10596 10590 10584 10581 10577 10574 10567 10558 10558 10551 10545 10538 10532 10530 10527 10525 10522 10522 10519 10512 10505 10496 10487 10477 10470 10470 10460
10684 10682 10677 10672 10668 10662 10657 10651 10645 10638 10630 10624 10618 10610 10602 10599 10595 10589 10582 10576 10572 10569 10567 10562 10557 10551 10550 10544 10539 10533 10528 10524 10523 10520 10519 10518 10514 10508 10503 10494 10485 10475 10468 10462 10461
10670 10667 10663 10657 10652 10646 10640 10634 10629 10622 10614 10609 10603 10597 10591 10583 10580 10575 10571 10566 10562 10559 10556 10553 10550 10546 10543 10538 10533 10528 10523 10520 10518 10516 10516 10515 10512 10507 10502 10494 10485 10475 10468 10461 10458
10654 10652 10648 10642 10636 10631 10624 10619 10615 10609 10603 10597 10593 10588 10582 10575 10567 10563 10560 10557 10554 10551 10549 10546 10543 10540 10538 10534 10528 10524 10520 10518 10515 10513 10513 10512 10511 10507 10500 10494 10485 10476 10469 10464 10459
10639 10637 10632 10626 10620 10615 10611 10605 10602 10598 10592 10588 10584 10580 10575 10569 10561 10555 10552 10549 10546 10544 10541 10539 10537 10535 10533 10529 10525 10521 10517 10515 10512 10510 10510 10510 10508 10505 10500 10495 10487 10479 10472 10468 10465